This is the latest recevied weather packets stored in our database for station/object N4CRH-13. If no packets are shown the sender has not sent any weather packets the latest 10 day(s).
| Time | Temp. | Humidity | Pressure | Rain* | Wind** | Luminosity | Snow |
|---|---|---|---|---|---|---|---|
| 1778094777 | -1.67° C | 99% | 1296.7 hPa | 0 mm | - | 302 W/m² | - |
| 1778094474 | -2.22° C | 99% | 1296.4 hPa | 0 mm | - | 218 W/m² | - |
| 1778094171 | -1.67° C | 99% | 1296.7 hPa | 0 mm | - | 225 W/m² | - |
| 1778093868 | -1.67° C | 99% | 1296.9 hPa | 0 mm | - | 291 W/m² | - |
| 1778093564 | -1.67° C | 99% | 1296.7 hPa | 0 mm | - | 212 W/m² | - |
| 1778093262 | -1.67° C | 99% | 1296.8 hPa | 0 mm | - | 200 W/m² | - |
| 1778092959 | -1.67° C | 99% | 1296.7 hPa | 0 mm | - | 209 W/m² | - |
| 1778092656 | -2.22° C | 99% | 1296.8 hPa | 0 mm | - | 263 W/m² | - |
| 1778092351 | -2.22° C | 99% | 1296.9 hPa | 0 mm | - | 149 W/m² | - |
| 1778092049 | -1.67° C | 99% | 1297.1 hPa | 0 mm | - | 173 W/m² | - |
| 1778091746 | -2.22° C | 99% | 1297 hPa | 0 mm | - | 213 W/m² | - |
| 1778091444 | -2.22° C | 99% | 1296.8 hPa | 0 mm | - | 251 W/m² | - |
| 1778091141 | -2.22° C | 99% | 1296.7 hPa | 0 mm | - | 223 W/m² | - |
| 1778090838 | -2.22° C | 99% | 1297 hPa | 0 mm | - | 207 W/m² | - |
| 1778090539 | -2.78° C | 99% | 1296.9 hPa | 0 mm | - | 188 W/m² | - |
| 1778090235 | -2.22° C | 99% | 1296.8 hPa | 0 mm | - | 184 W/m² | - |
| 1778089932 | -2.22° C | 99% | 1296.9 hPa | 0 mm | - | 161 W/m² | - |
| 1778089630 | -2.22° C | 99% | 1296.5 hPa | 0 mm | - | 157 W/m² | - |
| 1778089327 | -2.22° C | 99% | 1296.7 hPa | 0 mm | - | 197 W/m² | - |
| 1778089025 | -2.22° C | 99% | 1296.8 hPa | 0 mm | - | 172 W/m² | - |
| 1778088721 | -2.22° C | 99% | 1296.7 hPa | 0 mm | - | 167 W/m² | - |
| 1778088418 | -1.67° C | 99% | 1296.5 hPa | 0 mm | - | 141 W/m² | - |
| 1778088115 | -1.11° C | 99% | 1296.7 hPa | 0 mm | - | 213 W/m² | - |
| 1778087812 | -1.67° C | 99% | 1296.5 hPa | 0 mm | - | 240 W/m² | - |
| 1778087510 | -1.11° C | 99% | 1296.3 hPa | 0 mm | - | 260 W/m² | - |
* Rain latest hour (hover to see other rain measurements)
** Current wind speed in m/s (hover to see current wind gust speed)